Location: Bothwell
(42.3833°S, 147.0000°E)
Time: 22:38:36
(UTC+10:00)

CUTE 1.7 + AOD 2 - Pass Details

Date: 01 February 2023
Orbit: 584 x 601 km, 97.7° (Epoch: 02 April)

Event Time Altitude Azimuth Distance (km) Brightness Sun altitude
Exits shadow 04:26:01 34° 330° (NNW) 975 ? -17.3°
Maximum altitude 04:27:24 49° 279° (W) 774 ? -17.1°
Drops below altitude 10° 04:31:30 10° 204° (SSW) 1,946 ? -16.5°
Sets 04:33:45 0° 198° (SSW) 2,858 ? -16.2°
